| time (UTC) | temp C | wind direction | speed KPH | gust KPH | rain 1hr cm | rain 24hr cm | rain mn cm | humidity % | barometer mb |
| 20260510051543 | 10 | 120 | 0.0 | 0.0 | 0.00 | 0.18 | 0.00 | 96 | 1010.6 |
| 20260510050041 | 10 | 120 | 0.0 | 0.0 | 0.00 | 0.18 | 0.00 | 96 | 1010.7 |
| 20260510044538 | 10 | 120 | 0.0 | 0.0 | 0.00 | 0.18 | 0.00 | 96 | 1010.7 |
| 20260510043041 | 10 | 120 | 0.0 | 0.0 | 0.00 | 0.18 | 0.00 | 96 | 1010.7 |
| 20260510041539 | 10 | 120 | 0.0 | 0.0 | 0.00 | 0.18 | 0.00 | 95 | 1010.7 |
| 20260510040036 | 10 | 120 | 0.0 | 0.0 | 0.00 | 0.18 | 0.00 | 95 | 1010.8 |
| 20260510034534 | 11 | 120 | 0.0 | 0.0 | 0.00 | 0.18 | 0.18 | 95 | 1010.9 |
| 20260510033033 | 11 | 120 | 0.0 | 0.0 | 0.00 | 0.18 | 0.18 | 94 | 1010.8 |
| 20260510031533 | 11 | 120 | 0.0 | 0.0 | 0.00 | 0.18 | 0.18 | 94 | 1010.9 |
| 20260510030034 | 11 | 120 | 0.0 | 0.0 | 0.00 | 0.18 | 0.18 | 93 | 1011.0 |
| 20260510024534 | 11 | 120 | 0.0 | 0.0 | 0.00 | 0.18 | 0.18 | 92 | 1010.8 |
| 20260510023027 | 12 | 120 | 0.0 | 0.0 | 0.00 | 0.18 | 0.18 | 91 | 1010.7 |
| 20260510021533 | 12 | 124 | 0.0 | 0.0 | 0.00 | 0.18 | 0.18 | 91 | 1010.4 |
| 20260510020027 | 12 | 124 | 0.0 | 0.0 | 0.00 | 0.18 | 0.18 | 91 | 1010.5 |
| 20260510014527 | 12 | 124 | 0.0 | 1.6 | 0.00 | 0.18 | 0.18 | 90 | 1010.3 |
| 20260510013025 | 12 | 124 | 0.0 | 0.0 | 0.00 | 0.18 | 0.18 | 89 | 1010.1 |
| 20260510011524 | 13 | 124 | 0.0 | 0.0 | 0.00 | 0.18 | 0.18 | 88 | 1010.0 |
| 20260510010024 | 13 | 124 | 0.0 | 0.0 | 0.00 | 0.18 | 0.18 | 86 | 1009.8 |
| 20260510004523 | 13 | 124 | 0.0 | 1.6 | 0.00 | 0.18 | 0.18 | 85 | 1009.7 |
| 20260510003029 | 14 | 120 | 0.0 | 0.0 | 0.00 | 0.18 | 0.18 | 83 | 1009.6 |
| 20260510001523 | 15 | 121 | 0.0 | 0.0 | 0.00 | 0.18 | 0.18 | 80 | 1009.4 |
| 20260510000023 | 15 | 120 | 0.0 | 1.6 | 0.00 | 0.18 | 0.18 | 79 | 1009.3 |
| 20260509234533 | 16 | 117 | 0.0 | 3.2 | 0.00 | 0.18 | 0.18 | 77 | 1009.2 |
| 20260509233020 | 16 | 107 | 0.0 | 1.6 | 0.00 | 0.18 | 0.18 | 78 | 1009.2 |
| 20260509231519 | 16 | 127 | 0.0 | 3.2 | 0.00 | 0.18 | 0.18 | 79 | 1009.1 |
| 20260509230019 | 16 | 120 | 1.6 | 3.2 | 0.00 | 0.18 | 0.18 | 78 | 1009.2 |
| 20260509224517 | 16 | 112 | 0.0 | 1.6 | 0.00 | 0.18 | 0.18 | 77 | 1009.3 |
| 20260509223018 | 16 | 145 | 0.0 | 0.0 | 0.00 | 0.18 | 0.18 | 75 | 1009.3 |
| 20260509221516 | 16 | 189 | 0.0 | 3.2 | 0.00 | 0.18 | 0.18 | 73 | 1009.2 |
| 20260509220015 | 17 | 149 | 0.0 | 1.6 | 0.00 | 0.18 | 0.18 | 71 | 1009.3 |
| 20260509214513 | 17 | 237 | 0.0 | 0.0 | 0.00 | 0.18 | 0.18 | 73 | 1009.4 |
| 20260509213013 | 17 | 240 | 0.0 | 0.0 | 0.00 | 0.18 | 0.18 | 69 | 1009.6 |
| 20260509211512 | 17 | 240 | 0.0 | 1.6 | 0.00 | 0.18 | 0.18 | 71 | 1009.8 |
| 20260509210011 | 17 | 117 | 0.0 | 1.6 | 0.00 | 0.18 | 0.18 | 74 | 1009.9 |
| 20260509204510 | 16 | 102 | 0.0 | 0.0 | 0.00 | 0.18 | 0.18 | 72 | 1009.6 |
| 20260509203011 | 16 | 137 | 0.0 | 3.2 | 0.00 | 0.18 | 0.18 | 70 | 1009.6 |
| 20260509201509 | 17 | 224 | 0.0 | 1.6 | 0.00 | 0.18 | 0.18 | 72 | 1009.7 |
| 20260509200009 | 17 | 224 | 0.0 | 0.0 | 0.00 | 0.18 | 0.18 | 70 | 1009.9 |
| 20260509194507 | 17 | 224 | 0.0 | 1.6 | 0.00 | 0.18 | 0.18 | 67 | 1009.9 |
| 20260509193006 | 17 | 231 | 0.0 | 3.2 | 0.00 | 0.18 | 0.18 | 70 | 1010.0 |
| 20260509191501 | 16 | 135 | 0.0 | 3.2 | 0.00 | 0.18 | 0.18 | 71 | 1010.3 |
| 20260509190100 | 16 | 177 | 0.0 | 1.6 | 0.00 | 0.18 | 0.18 | 76 | 1010.3 |
| 20260509184643 | 15 | 150 | 0.0 | 4.8 | 0.00 | 0.18 | 0.18 | 77 | 1010.4 |
| 20260509183056 | 15 | 135 | 0.0 | 4.8 | 0.00 | 0.18 | 0.18 | 83 | 1010.7 |
| 20260509181550 | 14 | 130 | 0.0 | 6.4 | 0.00 | 0.18 | 0.18 | 82 | 1011.1 |
| 20260509180047 | 13 | 115 | 1.6 | 4.8 | 0.00 | 0.18 | 0.18 | 83 | 1011.2 |
| 20260509174548 | 13 | 218 | 0.0 | 4.8 | 0.00 | 0.18 | 0.18 | 86 | 1011.4 |
| 20260509173048 | 13 | 130 | 0.0 | 1.6 | 0.00 | 0.18 | 0.18 | 87 | 1011.3 |
| 20260509171545 | 13 | 118 | 0.0 | 4.8 | 0.00 | 0.18 | 0.18 | 87 | 1011.3 |
| 20260509170048 | 13 | 126 | 0.0 | 4.8 | 0.00 | 0.18 | 0.18 | 86 | 1011.5 |
| 20260509164544 | 13 | 110 | 0.0 | 1.6 | 0.00 | 0.18 | 0.18 | 88 | 1011.5 |
| 20260509163103 | 13 | 262 | 0.0 | 1.6 | 0.00 | 0.18 | 0.18 | 89 | 1011.9 |
| 20260509161544 | 13 | 261 | 0.0 | 3.2 | 0.00 | 0.18 | 0.18 | 87 | 1011.9 |
| 20260509160044 | 12 | 117 | 0.0 | 3.2 | 0.05 | 0.18 | 0.18 | 92 | 1011.8 |
| 20260509154546 | 12 | 147 | 0.0 | 1.6 | 0.13 | 0.18 | 0.18 | 91 | 1011.8 |
| 20260509153041 | 12 | 240 | 0.0 | 0.0 | 0.18 | 0.18 | 0.18 | 92 | 1011.5 |
| 20260509151541 | 11 | 240 | 0.0 | 0.0 | 0.18 | 0.18 | 0.18 | 92 | 1011.8 |
| 20260509150039 | 12 | 240 | 0.0 | 0.0 | 0.13 | 0.13 | 0.13 | 87 | 1012.0 |
| 20260509144539 | 12 | 240 | 0.0 | 0.0 | 0.05 | 0.05 | 0.05 | 83 | 1012.1 |
| 20260509143045 | 13 | 240 | 0.0 | 1.6 | 0.00 | 0.00 | 0.00 | 79 | 1012.3 |
| 20260509141541 | 13 | 220 | 0.0 | 1.6 | 0.00 | 0.00 | 0.00 | 75 | 1012.3 |
| 20260509140031 | 14 | 227 | 0.0 | 1.6 | 0.00 | 0.00 | 0.00 | 72 | 1012.1 |
| 20260509134527 | 13 | 227 | 0.0 | 3.2 | 0.00 | 0.00 | 0.00 | 71 | 1011.9 |
| 20260509133025 | 13 | 152 | 0.0 | 3.2 | 0.00 | 0.00 | 0.00 | 71 | 1011.3 |
| 20260509131524 | 13 | 179 | 0.0 | 1.6 | 0.00 | 0.00 | 0.00 | 70 | 1011.5 |
| 20260509130020 | 13 | 214 | 0.0 | 1.6 | 0.00 | 0.00 | 0.00 | 70 | 1011.3 |
| 20260509124519 | 13 | 130 | 0.0 | 1.6 | 0.00 | 0.00 | 0.00 | 70 | 1011.2 |
| 20260509123021 | 12 | 260 | 0.0 | 1.6 | 0.00 | 0.00 | 0.00 | 72 | 1011.4 |
| 20260509121518 | 12 | 260 | 0.0 | 1.6 | 0.00 | 0.00 | 0.00 | 70 | 1011.5 |
| 20260509120018 | 12 | 120 | 0.0 | 3.2 | 0.00 | 0.00 | 0.00 | 70 | 1011.3 |
| 20260509114517 | 12 | 209 | 0.0 | 0.0 | 0.00 | 0.00 | 0.00 | 72 | 1011.5 |
| 20260509113016 | 12 | 209 | 0.0 | 0.0 | 0.00 | 0.00 | 0.00 | 70 | 1010.8 |
| 20260509111526 | 12 | 209 | 0.0 | 1.6 | 0.00 | 0.00 | 0.00 | 70 | 1010.9 |
| 20260509110015 | 12 | 229 | 0.0 | 0.0 | 0.00 | 0.00 | 0.00 | 70 | 1010.9 |
| 20260509104524 | 12 | 129 | 0.0 | 0.0 | 0.00 | 0.00 | 0.00 | 71 | 1010.8 |
| 20260509103012 | 11 | 130 | 0.0 | 0.0 | 0.00 | 0.00 | 0.00 | 71 | 1010.8 |
| 20260509101512 | 12 | 130 | 0.0 | 0.0 | 0.00 | 0.00 | 0.00 | 71 | 1010.7 |
| 20260509100017 | 12 | 130 | 0.0 | 1.6 | 0.00 | 0.00 | 0.00 | 71 | 1010.7 |
| 20260509094510 | 12 | 127 | 0.0 | 0.0 | 0.00 | 0.00 | 0.00 | 71 | 1010.7 |
| 20260509093009 | 12 | 127 | 0.0 | 0.0 | 0.00 | 0.00 | 0.00 | 70 | 1010.7 |
| 20260509091508 | 12 | 129 | 0.0 | 1.6 | 0.00 | 0.00 | 0.00 | 70 | 1010.8 |
| 20260509090006 | 12 | 147 | 0.0 | 3.2 | 0.00 | 0.00 | 0.00 | 69 | 1010.9 |
| 20260509084506 | 12 | 183 | 0.0 | 0.0 | 0.00 | 0.00 | 0.00 | 70 | 1011.0 |
| 20260509083004 | 12 | 122 | 0.0 | 1.6 | 0.00 | 0.00 | 0.00 | 70 | 1011.2 |
| 20260509081505 | 12 | 214 | 0.0 | 0.0 | 0.00 | 0.00 | 0.00 | 72 | 1011.2 |
| 20260509080004 | 12 | 214 | 0.0 | 1.6 | 0.00 | 0.00 | 0.00 | 71 | 1011.2 |
| 20260509074502 | 12 | 224 | 0.0 | 0.0 | 0.00 | 0.00 | 0.00 | 72 | 1011.1 |
| 20260509073005 | 11 | 231 | 0.0 | 1.6 | 0.00 | 0.00 | 0.00 | 72 | 1011.1 |
| 20260509071500 | 11 | 229 | 0.0 | 0.0 | 0.00 | 0.00 | 0.00 | 76 | 1011.2 |
| 20260509064557 | 12 | 229 | 0.0 | 0.0 | 0.00 | 0.00 | 0.00 | 75 | 1011.4 |
| 20260509063100 | 12 | 229 | 0.0 | 1.6 | 0.00 | 0.00 | 0.00 | 73 | 1011.5 |
| 20260509061606 | 12 | 117 | 0.0 | 4.8 | 0.00 | 0.00 | 0.00 | 72 | 1011.2 |
| 20260509060052 | 13 | 138 | 0.0 | 8.0 | 0.00 | 0.00 | 0.00 | 71 | 1011.1 |
| 20260509054557 | 13 | 125 | 0.0 | 4.8 | 0.00 | 0.00 | 0.00 | 70 | 1011.4 |
| 20260509053057 | 13 | 122 | 0.0 | 4.8 | 0.00 | 0.00 | 0.00 | 68 | 1011.8 |